Wind_Speed
16 17 18 18 19 20 21 21 21 22 23 24 26 27 29 30 31 32 33 34 36 37 38 39 39 39 39 39 39 40 40 41 41 41 41 40 40 39 38 36 35 36
18 18 19 20 20 22 23 23 23 24 25 26 27 28 30 31 32 33 34 35 36 38 39 40 41 41 41 40 41 41 41 42 42 43 43 42 42 41 40 38 37 37
19 20 21 22 23 24 25 25 25 26 26 27 28 30 31 32 33 34 36 36 37 39 40 41 42 42 43 42 42 42 43 44 44 44 44 44 44 43 42 40 39 39
20 21 23 24 25 26 27 27 28 28 28 29 30 31 32 33 34 35 37 38 38 40 41 42 43 43 43 44 44 44 45 46 46 46 46 46 46 45 43 41 40 40
21 22 24 26 27 29 29 30 30 30 30 31 32 33 34 34 35 36 37 38 39 40 42 43 44 43 44 44 45 46 46 47 48 48 48 47 47 46 44 42 41 41
22 23 25 28 29 31 31 32 32 32 33 33 34 35 36 36 37 38 39 39 40 41 42 44 45 45 45 45 46 47 47 48 49 49 49 49 48 46 45 44 43 42
24 25 27 29 31 32 33 34 34 35 35 35 37 38 38 38 39 40 41 41 41 42 44 45 46 47 47 46 47 47 48 49 49 50 51 50 49 48 47 45 44 44
27 28 29 31 33 34 35 36 37 37 37 38 39 39 40 41 41 42 42 43 43 43 44 45 47 48 48 48 48 48 48 49 50 51 51 51 51 49 47 46 45 44
31 31 32 33 35 36 37 38 39 39 40 41 41 41 42 43 43 43 44 44 45 44 44 46 47 48 49 50 50 51 51 51 51 52 52 52 51 49 47 46 45 45
34 34 35 36 37 38 39 40 40 41 42 43 43 43 44 44 45 45 45 46 46 44 45 47 48 48 50 50 52 53 53 53 53 53 53 53 51 49 49 48 47 48
37 38 38 38 39 40 40 41 42 42 43 45 46 46 46 46 46 47 47 47 47 46 47 49 49 49 50 51 53 54 55 56 56 55 54 52 51 50 51 50 50 49
40 40 41 41 41 41 42 42 43 44 45 46 47 48 48 48 49 49 49 49 49 49 49 50 50 50 50 52 54 55 56 57 57 56 54 52 51 51 51 51 51 50
43 43 43 44 43 43 43 43 44 46 47 48 49 49 49 50 51 51 51 51 51 51 51 52 52 52 51 52 53 55 56 57 56 55 53 51 51 50 49 51 53 51
45 45 45 46 46 45 45 45 46 48 49 50 51 51 51 52 53 52 52 53 53 53 53 53 53 54 53 52 54 56 57 57 57 55 51 48 47 47 49 53 54 51
46 47 48 48 47 47 48 48 48 49 50 50 51 52 53 54 54 54 54 54 55 55 54 54 54 54 54 54 54 55 58 58 55 50 44 42 44 48 53 57 58 55
48 49 49 49 49 50 50 49 49 49 50 50 51 54 55 56 56 56 56 57 57 57 56 55 54 55 56 55 53 55 56 53 49 46 45 45 48 54 60 63 63 60
51 51 51 51 51 51 50 49 49 50 50 51 54 56 57 58 58 58 59 59 59 59 58 57 57 59 58 55 54 54 49 45 47 51 53 54 57 60 64 66 64 62
52 51 52 52 53 53 52 51 52 53 54 55 57 57 58 59 60 61 62 62 61 62 62 60 60 61 60 57 54 50 44 48 56 59 58 58 61 64 65 64 63 63
52 52 53 54 54 54 54 54 55 56 57 58 59 59 60 61 62 63 65 64 64 64 64 63 63 63 62 60 54 48 48 56 62 59 57 58 61 63 64 64 64 64
53 54 56 57 57 57 57 57 58 59 59 60 61 61 62 63 64 66 67 66 66 66 66 66 66 66 64 62 58 53 52 56 56 56 58 62 65 65 65 65 65 65
57 58 59 60 60 60 61 61 61 62 62 62 63 63 64 65 66 67 68 69 68 68 68 69 69 68 67 65 62 58 54 51 54 59 63 66 66 64 64 65 65 64
62 61 62 63 64 64 64 65 65 65 65 65 66 65 66 67 67 68 70 71 70 70 71 71 70 69 69 67 65 63 59 56 58 63 64 63 63 63 64 65 65 64
65 65 65 66 67 67 68 69 69 69 68 68 68 67 68 69 69 70 71 72 73 73 73 73 72 71 70 68 67 67 65 63 64 64 63 63 64 65 65 65 64 64
67 68 69 70 70 70 71 72 73 72 72 71 70 69 69 70 70 71 72 73 74 75 74 73 73 72 71 70 69 68 67 67 67 65 64 65 66 65 64 63 64 65
70 71 72 73 73 73 74 76 76 75 75 73 72 71 71 72 72 72 73 73 74 74 73 73 74 73 71 70 69 68 67 67 67 67 67 66 65 62 61 62 64 64
72 73 74 75 76 76 78 79 78 77 77 76 74 73 73 73 74 73 73 73 73 72 72 74 74 72 70 70 68 67 67 68 68 67 66 63 61 61 62 63 64 63
Wind_Direction
305 307 310 314 315 315 317 319 323 325 327 329 330 330 331 333 334 336 338 340 340 341 341 341 341 342 343 344 344 343 342 341 339 338 337 337 336 335 332 329 327 326
300 303 307 310 312 313 314 316 319 322 324 326 327 327 328 330 332 333 335 337 338 339 339 340 340 340 340 341 341 341 340 339 338 337 336 336 335 334 332 329 325 324
294 299 303 306 308 310 311 313 317 319 321 323 324 324 326 328 330 331 333 335 336 337 338 338 338 338 338 338 339 339 338 337 337 336 335 335 335 334 333 331 326 324
289 294 299 303 305 307 309 311 314 316 318 321 322 322 324 326 328 329 330 332 334 335 336 336 336 336 336 336 336 337 337 336 336 335 334 334 334 334 333 332 328 325
285 291 296 299 302 304 306 308 311 313 316 319 319 320 322 324 326 327 328 330 332 333 334 334 335 334 335 334 334 335 335 335 334 333 333 333 334 334 332 331 329 327
285 289 292 296 299 302 303 305 308 310 314 316 317 318 320 322 324 325 326 327 329 332 333 333 333 333 333 333 333 333 333 333 332 332 333 332 332 332 331 330 330 329
285 287 290 293 296 299 302 303 305 308 312 314 315 317 318 321 323 324 324 325 327 330 332 333 332 331 331 331 331 331 331 331 331 331 332 331 331 331 331 330 330 329
283 285 288 290 293 297 299 301 303 306 310 312 314 316 317 318 320 322 323 323 324 327 330 332 331 329 329 328 328 329 329 330 331 331 331 330 330 330 330 330 329 329
282 283 286 289 292 295 297 299 302 305 308 310 312 314 316 317 318 320 321 322 322 324 327 330 329 327 326 327 327 328 329 329 330 330 330 330 329 329 329 329 328 327
280 282 285 288 291 292 295 298 301 305 307 309 311 312 314 315 316 317 318 320 322 322 323 326 326 325 325 326 327 327 327 328 329 330 330 330 328 327 327 327 327 326
280 282 284 287 289 291 294 298 301 304 306 308 309 310 312 314 315 316 317 318 320 320 321 322 323 323 324 326 326 326 327 329 330 330 329 327 326 325 325 326 326 325
279 281 283 285 287 290 294 297 301 304 305 306 307 308 310 312 313 314 316 316 317 318 319 320 320 321 323 325 326 326 328 329 328 327 326 324 324 323 324 326 326 325
278 281 283 285 287 291 294 298 301 303 304 304 305 306 308 309 311 312 313 314 315 316 317 318 318 319 321 325 326 326 327 327 326 324 322 322 322 322 324 326 326 324
278 281 283 285 289 292 295 298 300 301 302 303 304 305 305 307 308 309 311 312 312 313 315 315 316 317 320 323 325 326 327 326 322 320 320 322 323 324 324 325 325 321
279 281 283 286 290 292 295 297 298 299 300 301 302 303 303 304 306 307 308 309 309 311 313 313 314 316 318 322 325 328 328 324 320 321 323 324 322 320 320 322 321 316
279 282 284 287 290 292 294 294 295 297 297 298 300 301 302 302 303 305 306 306 307 309 310 311 312 313 316 320 324 329 328 320 317 320 323 319 316 316 317 317 315 312
279 282 284 287 289 291 291 291 293 295 294 295 298 299 300 301 301 302 303 304 306 307 308 310 309 311 315 317 322 329 324 311 310 315 315 313 313 314 314 313 311 309
279 281 283 285 286 287 288 289 291 292 292 294 296 297 298 299 300 300 301 303 305 306 307 308 308 309 312 315 322 327 315 304 309 311 308 308 310 310 310 309 308 308
278 281 282 283 285 286 287 288 289 290 291 293 294 296 297 297 298 299 300 302 304 305 305 306 307 309 310 313 319 318 310 310 312 308 304 306 308 307 307 306 306 307
278 280 282 282 283 285 286 286 288 289 290 292 293 295 295 296 297 298 299 301 303 304 304 305 306 308 309 312 314 313 315 316 310 303 303 306 306 306 305 305 307 308
278 280 281 282 283 284 285 286 287 289 290 291 292 293 293 294 296 298 299 301 302 302 303 304 306 307 309 311 312 312 316 313 304 300 303 304 305 306 305 305 307 308
278 280 280 282 284 285 286 286 287 288 289 289 290 291 292 294 296 298 299 300 301 301 302 303 305 307 308 310 310 311 312 308 301 301 303 304 305 305 305 307 309 311
278 280 281 282 284 284 285 285 286 287 288 288 289 290 292 293 295 297 297 298 299 299 300 302 304 306 307 308 309 310 310 308 305 305 306 306 306 307 309 312 313 315
278 280 281 281 282 283 283 284 285 286 287 288 289 290 291 292 294 295 296 297 297 298 299 301 303 304 306 308 309 309 309 309 309 309 309 309 310 312 314 315 315 315
277 278 279 279 280 281 282 283 284 286 287 287 288 289 290 291 292 293 294 294 295 297 299 300 302 304 306 308 309 309 309 310 310 310 310 311 313 315 314 313 314 314
274 275 277 278 280 281 282 283 284 285 286 286 287 288 289 290 291 292 292 292 293 296 298 299 302 304 306 307 308 308 309 309 309 310 311 313 313 313 312 312 312 313
Height
10983 10984 10984 10984 10983 10982 10981 10981 10981 10980 10979 10977 10976 10974 10973 10971 10970 10968 10967 10965 10963 10961 10959 10956 10954 10952 10950 10948 10946 10943 10941 10938 10936 10934 10931 10929 10926 10924 10921 10919 10916 10913
10981 10981 10981 10981 10981 10980 10979 10979 10978 10978 10977 10976 10974 10972 10971 10969 10967 10965 10964 10963 10961 10959 10957 10954 10951 10948 10947 10945 10943 10941 10938 10936 10933 10931 10928 10926 10924 10921 10919 10916 10913 10910
10978 10978 10979 10979 10978 10978 10977 10976 10976 10975 10975 10974 10972 10970 10968 10967 10965 10963 10961 10960 10959 10957 10955 10952 10949 10946 10944 10942 10940 10938 10935 10933 10930 10928 10925 10923 10921 10918 10916 10913 10910 10907
10975 10976 10976 10976 10976 10975 10975 10974 10973 10973 10972 10971 10970 10968 10966 10964 10963 10961 10959 10957 10956 10954 10952 10950 10948 10945 10942 10939 10936 10934 10931 10929 10927 10925 10922 10920 10917 10915 10912 10910 10907 10904
10972 10972 10973 10973 10972 10972 10972 10971 10971 10970 10969 10968 10966 10965 10964 10962 10960 10959 10957 10955 10954 10952 10950 10948 10945 10943 10940 10937 10933 10931 10928 10926 10923 10921 10919 10916 10914 10912 10909 10906 10904 10901
10969 10969 10969 10970 10969 10969 10969 10969 10968 10967 10967 10965 10963 10962 10960 10959 10958 10956 10954 10953 10951 10949 10947 10945 10942 10939 10937 10935 10931 10928 10926 10923 10920 10917 10915 10912 10910 10908 10905 10902 10900 10897
10966 10966 10966 10966 10966 10966 10966 10965 10965 10964 10964 10962 10960 10959 10957 10956 10954 10953 10951 10949 10947 10946 10944 10942 10938 10935 10932 10931 10929 10927 10924 10921 10917 10914 10911 10908 10906 10904 10901 10898 10895 10892
10963 10963 10963 10963 10963 10963 10962 10962 10961 10961 10960 10959 10957 10956 10954 10952 10951 10949 10947 10946 10944 10942 10940 10938 10935 10931 10929 10927 10925 10923 10921 10918 10914 10911 10907 10905 10902 10899 10897 10894 10891 10888
10959 10959 10959 10959 10959 10959 10959 10958 10958 10957 10956 10955 10954 10952 10951 10949 10948 10946 10944 10942 10940 10939 10937 10936 10933 10929 10926 10923 10920 10918 10917 10914 10911 10908 10904 10901 10898 10895 10892 10890 10887 10884
10956 10956 10956 10955 10955 10955 10955 10954 10954 10953 10952 10950 10949 10948 10947 10946 10944 10942 10940 10939 10937 10936 10934 10932 10930 10926 10923 10920 10917 10914 10911 10909 10906 10903 10900 10896 10893 10889 10887 10885 10883 10880
10952 10952 10952 10952 10951 10951 10951 10950 10949 10949 10948 10946 10945 10944 10943 10941 10939 10938 10936 10934 10933 10932 10930 10928 10925 10922 10919 10917 10913 10910 10906 10902 10899 10897 10894 10891 10888 10884 10882 10880 10878 10876
10948 10948 10948 10948 10947 10947 10947 10946 10945 10945 10944 10942 10940 10939 10938 10936 10934 10933 10931 10929 10928 10927 10925 10923 10920 10918 10916 10913 10910 10906 10902 10897 10894 10891 10888 10886 10883 10880 10877 10875 10873 10871
10943 10944 10943 10943 10943 10943 10942 10942 10941 10940 10939 10937 10936 10934 10933 10931 10929 10927 10926 10924 10923 10922 10920 10918 10915 10913 10912 10911 10907 10903 10899 10894 10890 10886 10883 10880 10878 10876 10873 10870 10867 10865
10939 10939 10938 10937 10937 10937 10937 10937 10937 10935 10934 10932 10930 10929 10927 10925 10924 10922 10921 10919 10917 10917 10916 10913 10910 10908 10908 10908 10905 10900 10895 10889 10884 10880 10877 10874 10872 10870 10868 10865 10862 10860
10935 10934 10933 10932 10932 10932 10932 10932 10932 10931 10929 10927 10925 10923 10921 10919 10918 10916 10915 10914 10912 10912 10911 10909 10906 10904 10903 10904 10902 10897 10890 10882 10876 10874 10872 10870 10867 10865 10863 10860 10858 10856
10929 10928 10927 10927 10927 10926 10927 10927 10926 10926 10924 10922 10920 10918 10915 10913 10912 10910 10909 10908 10907 10907 10906 10904 10902 10899 10900 10900 10899 10895 10886 10875 10870 10869 10868 10866 10863 10861 10858 10856 10854 10851
10923 10923 10922 10921 10921 10921 10921 10921 10921 10920 10918 10916 10915 10913 10910 10908 10906 10904 10903 10902 10901 10900 10900 10899 10897 10895 10895 10896 10896 10893 10882 10870 10868 10868 10866 10862 10859 10857 10855 10851 10848 10846
10917 10917 10916 10915 10915 10915 10915 10915 10915 10914 10912 10910 10909 10908 10905 10902 10900 10898 10896 10895 10895 10893 10892 10892 10890 10889 10890 10891 10894 10890 10878 10870 10870 10868 10863 10859 10857 10854 10851 10847 10843 10841
10911 10911 10910 10909 10909 10909 10909 10909 10909 10907 10906 10904 10903 10901 10899 10896 10894 10891 10889 10889 10889 10887 10885 10884 10884 10884 10883 10885 10890 10889 10880 10873 10868 10862 10857 10856 10853 10850 10846 10842 10839 10836
10905 10905 10903 10903 10903 10903 10903 10903 10902 10901 10900 10898 10896 10894 10893 10890 10888 10885 10883 10882 10882 10880 10878 10877 10876 10876 10876 10877 10881 10883 10882 10876 10864 10855 10853 10851 10848 10845 10841 10836 10833 10830
10897 10898 10897 10896 10896 10897 10896 10896 10896 10895 10894 10892 10890 10888 10886 10884 10882 10880 10877 10876 10874 10873 10871 10870 10869 10868 10868 10869 10870 10873 10880 10880 10867 10855 10851 10847 10843 10840 10834 10830 10827 10823
10890 10891 10891 10890 10890 10890 10889 10888 10888 10888 10888 10886 10884 10882 10880 10878 10877 10875 10871 10869 10867 10865 10863 10862 10862 10861 10861 10860 10860 10861 10868 10872 10864 10855 10848 10842 10838 10834 10828 10823 10819 10814
10882 10883 10884 10883 10883 10882 10881 10880 10880 10880 10880 10880 10879 10877 10875 10873 10873 10870 10866 10863 10860 10858 10856 10854 10854 10855 10854 10853 10852 10851 10852 10853 10849 10844 10839 10833 10829 10825 10819 10814 10808 10803
10876 10876 10876 10875 10875 10875 10873 10872 10872 10872 10872 10873 10873 10872 10870 10868 10868 10865 10862 10858 10854 10851 10849 10847 10846 10847 10847 10845 10843 10841 10840 10837 10834 10831 10827 10822 10818 10813 10808 10803 10798 10795
10869 10867 10867 10866 10867 10867 10865 10863 10863 10864 10864 10865 10865 10865 10864 10862 10861 10860 10857 10853 10848 10845 10843 10840 10839 10839 10839 10837 10834 10832 10830 10827 10824 10821 10816 10812 10807 10803 10799 10795 10791 10788
10860 10859 10858 10857 10858 10859 10856 10855 10855 10856 10856 10856 10858 10858 10857 10855 10854 10853 10851 10846 10843 10840 10837 10835 10834 10833 10832 10829 10827 10824 10822 10819 10815 10811 10807 10803 10799 10796 10792 10789 10785 10782